SCP
0 0 0 0 0 0 0 0 1 1 1 1 0 0 0 0 0 0 1 1 1 1 1 1 1 1 1 1 1 2 2 2 2 3 3 3 2 2 2 2 1 1 1
0 0 0 0 0 0 0 0 1 1 1 0 0 1 0 0 0 1 1 1 1 1 1 1 1 1 1 1 1 1 2 2 2 2 3 2 2 1 1 1 1 1 1
0 0 0 1 0 0 0 0 1 0 0 0 0 1 1 1 1 1 1 1 1 1 1 1 1 1 0 1 1 1 1 2 2 2 2 2 1 1 1 1 1 1 1
0 0 1 1 1 1 0 0 0 0 0 0 0 1 1 1 1 1 1 1 1 1 1 1 1 1 0 1 1 1 1 1 1 1 1 1 1 1 1 1 1 1 1
0 1 1 1 1 1 1 0 0 0 0 0 0 1 1 2 2 1 1 1 1 1 1 1 1 1 1 1 1 1 1 1 1 1 1 1 1 1 1 1 1 1 1
1 1 1 1 1 1 1 0 0 0 0 0 0 0 1 1 1 1 1 1 1 1 1 1 1 1 1 1 1 1 1 1 1 1 1 1 1 1 1 1 1 1 1
1 1 1 1 1 1 1 1 0 0 0 0 0 0 0 0 0 1 1 1 1 1 1 1 0 0 0 1 1 1 1 2 1 1 1 1 1 1 1 1 1 1 1
1 1 1 1 1 1 1 1 0 0 0 0 0 0 0 0 0 0 0 0 0 0 0 0 0 0 0 0 0 1 1 1 1 1 1 1 1 1 1 1 1 1 1
1 1 1 1 1 1 1 1 1 0 0 0 0 0 0 0 0 0 0 0 0 0 0 0 0 0 0 0 0 0 1 1 1 1 1 1 1 1 1 1 1 1 1
1 0 0 0 1 1 1 1 0 0 0 0 0 0 0 0 0 0 0 0 0 0 0 0 0 0 0 0 0 0 0 0 0 1 0 0 0 0 0 1 1 1 1
0 0 0 0 1 1 1 1 0 0 0 0 0 0 0 0 0 0 0 0 0 0 0 0 0 0 0 0 0 0 0 0 0 0 0 0 0 0 0 0 1 1 1
0 0 0 0 1 1 1 1 0 0 0 0 0 0 0 0 0 0 0 0 0 0 0 0 0 0 0 0 0 0 0 0 0 0 0 0 0 0 0 0 0 0 1
0 0 0 1 1 1 1 1 0 0 0 0 0 0 0 0 0 0 0 0 0 0 0 0 0 0 0 0 0 0 0 0 0 0 0 0 0 0 0 0 0 0 0
0 0 0 1 1 1 1 1 0 0 0 0 0 0 0 0 0 0 0 0 0 0 0 0 0 0 0 0 0 0 0 0 0 0 0 0 0 0 0 0 0 0 0
1 0 0 1 1 1 1 1 1 0 0 0 0 0 0 0 0 0 0 0 0 0 0 0 0 0 0 0 0 0 0 0 0 0 0 0 0 0 0 0 0 0 0
1 1 0 0 1 1 1 1 1 1 1 1 1 1 1 1 1 1 1 1 0 0 0 0 0 0 0 0 0 0 0 0 0 0 0 0 0 0 0 0 0 0 0
1 1 1 1 1 1 1 1 1 1 1 1 1 1 1 1 1 1 1 1 1 1 0 0 0 0 0 0 0 0 0 0 0 0 0 0 0 0 0 0 0 0 0
1 1 1 1 1 1 1 1 1 1 1 0 0 0 1 1 1 1 1 1 1 1 1 0 0 0 0 0 0 0 0 0 0 0 0 0 0 0 0 0 0 0 0
0 1 1 1 1 1 1 1 1 1 1 0 0 0 0 0 1 1 1 1 1 1 1 1 0 0 0 0 0 0 0 0 0 0 0 0 0 0 0 0 0 0 0
0 0 0 1 1 1 1 1 1 1 1 0 0 0 0 0 0 1 1 1 1 1 1 1 0 1 0 0 0 0 0 0 0 0 0 0 0 0 0 0 0 0 0
0 0 0 0 1 1 1 0 1 1 1 0 0 0 0 0 0 0 0 0 1 1 1 1 1 1 0 0 0 0 0 0 0 0 0 0 0 0 0 0 0 0 0
0 0 0 0 0 0 0 0 0 0 0 0 0 0 0 0 0 0 0 0 0 0 1 1 1 0 0 0 0 0 0 0 0 0 0 0 0 0 0 0 0 0 0
0 0 0 0 0 0 0 0 0 0 0 0 0 0 0 0 0 0 0 0 0 0 0 0 0 0 0 0 0 0 0 0 0 0 0 0 0 0 0 0 0 0 0
0 0 0 0 0 0 0 0 0 0 0 0 0 0 0 0 0 0 0 0 0 0 0 0 0 0 0 0 0 0 1 1 0 0 0 0 0 0 0 0 0 0 0
1 1 0 0 0 0 0 0 0 0 0 0 0 0 0 0 0 0 0 0 0 0 0 0 0 0 0 0 0 0 1 1 1 1 0 0 0 0 0 0 0 0 0
1 1 1 0 0 0 0 0 0 0 0 0 0 0 0 0 0 0 0 0 0 0 0 0 0 0 0 0 0 0 1 1 1 1 0 0 0 0 0 0 0 0 0
Wind_Speed
3 3 3 3 4 3 3 4 4 6 6 7 6 7 7 7 7 6 6 11 11 11 10 10 10 10 10 10 10 9 9 8 8 9 9 9 8 7 6 6 7 6 6
3 3 4 4 3 3 3 3 5 4 4 5 6 7 7 6 7 6 6 7 10 10 10 10 10 10 10 10 9 9 9 8 8 8 8 8 8 7 7 6 6 6 6
3 3 3 3 3 3 3 3 5 4 4 4 6 6 5 6 6 6 6 5 6 9 10 10 9 9 9 9 9 9 9 9 9 8 8 7 7 7 7 6 5 5 6
3 3 2 2 2 2 3 3 3 3 3 3 4 4 4 4 5 5 5 5 4 4 7 9 8 8 8 8 8 9 8 9 9 9 9 8 7 7 6 6 5 5 5
2 2 2 2 2 2 2 2 2 2 3 3 3 3 4 4 3 4 5 5 5 4 4 6 7 8 8 8 8 8 8 8 8 8 8 8 7 6 6 5 5 5 5
1 2 1 2 2 2 1 2 2 2 2 2 2 3 3 3 3 4 4 4 4 5 4 4 3 5 7 7 8 7 7 7 7 7 7 7 7 6 5 5 5 4 4
1 2 1 1 1 1 1 1 2 2 1 1 1 2 3 3 3 3 3 2 4 4 4 4 4 3 3 6 7 7 7 7 6 7 7 6 6 6 6 5 5 5 5
1 1 1 1 1 1 1 1 1 0 1 0 1 0 1 3 2 2 2 2 3 3 4 4 4 4 4 3 7 8 7 7 6 6 6 6 6 5 5 5 5 5 5
1 1 1 1 1 1 1 1 1 1 0 0 1 2 1 1 1 2 2 1 2 2 2 3 4 4 4 3 4 6 7 6 5 5 5 5 6 6 5 5 5 5 4
2 1 1 1 1 1 1 2 2 1 1 1 0 1 2 2 1 0 1 1 2 2 2 2 2 3 4 3 4 6 7 6 5 5 5 5 5 5 5 5 4 4 4
1 2 1 1 1 1 1 1 1 1 1 1 0 0 0 0 2 1 1 0 1 1 2 2 2 2 3 3 3 6 6 5 6 5 5 5 5 5 5 4 4 4 4
1 2 1 2 2 1 2 2 2 2 1 1 1 1 1 1 1 1 1 1 1 1 1 1 1 1 1 2 4 6 5 5 5 5 5 5 5 5 4 4 3 4 4
1 1 2 2 2 2 2 2 2 2 3 2 2 2 2 2 2 2 2 1 1 0 0 0 0 1 1 1 2 3 3 4 4 5 5 5 5 4 4 3 3 3 3
2 2 2 2 2 2 2 2 2 3 2 3 3 3 2 2 2 2 2 2 2 1 1 1 1 0 0 0 2 1 2 3 3 4 4 4 5 4 4 3 3 3 3
2 2 2 2 1 1 2 2 2 3 3 3 3 3 3 2 2 2 2 2 2 2 1 1 1 1 0 0 0 1 0 3 2 3 3 4 4 4 4 4 4 4 4
2 2 3 2 2 2 2 2 2 2 3 2 2 3 3 3 2 2 2 3 3 3 2 1 1 1 1 1 1 1 0 2 1 1 2 3 4 3 3 3 3 3 4
3 3 3 3 2 2 2 1 2 2 3 3 3 3 4 3 3 3 3 3 3 2 3 2 1 2 2 2 2 2 2 2 1 1 1 2 3 3 3 3 2 3 3
3 3 3 3 3 3 3 3 3 3 3 3 3 4 4 3 4 4 3 4 3 3 3 3 2 2 3 2 2 2 2 1 1 2 1 1 2 2 2 2 2 2 3
3 3 3 3 3 3 3 3 3 3 3 4 4 4 4 4 4 4 4 4 3 3 3 3 3 2 2 2 2 2 2 2 2 2 2 2 1 2 2 1 1 2 2
3 3 3 3 3 3 3 3 4 4 4 4 3 3 4 4 4 4 4 4 3 4 3 3 3 2 2 2 2 2 2 2 2 1 1 1 2 2 2 1 1 1 2
3 3 3 3 3 3 2 3 3 4 4 4 4 3 3 3 3 3 3 3 3 3 3 3 3 3 2 2 2 2 2 2 1 1 2 2 2 2 2 3 2 1 1
2 2 2 2 2 1 1 2 4 4 4 4 4 4 3 3 3 3 4 4 4 4 4 4 3 4 3 3 2 3 3 3 2 1 2 2 2 2 1 1 1 1 1
2 3 2 2 3 1 1 2 4 5 4 4 4 4 3 2 4 4 4 5 5 4 5 5 5 5 4 3 4 4 4 3 2 1 2 2 2 2 2 0 1 2 2
2 3 3 3 3 2 1 3 4 5 4 4 4 5 4 3 3 3 4 5 4 4 4 5 5 4 3 3 4 4 3 2 2 1 2 3 2 2 2 1 2 2 2
3 3 3 3 4 3 1 2 4 4 4 5 4 4 4 4 1 2 5 4 4 3 2 1 2 1 2 1 2 2 3 3 3 2 2 3 2 2 3 2 2 3 3
3 3 3 3 3 3 1 2 4 4 4 3 4 4 3 3 1 3 5 4 4 3 3 3 3 3 3 3 4 5 4 4 3 3 2 3 2 2 2 2 2 2 2
Wind_Direction
87 88 84 80 71 69 69 66 72 70 65 62 63 61 59 59 59 59 72 58 52 57 62 66 65 62 64 67 69 74 77 76 72 67 62 61 63 64 68 65 62 63 60
90 88 83 77 70 65 62 66 76 76 69 66 65 63 60 59 60 61 66 73 64 58 57 60 64 63 61 64 64 67 69 67 67 66 64 61 60 59 61 62 62 64 60
100 97 87 82 75 75 74 65 73 74 76 76 72 64 62 57 59 60 61 60 74 73 60 55 58 62 60 59 60 62 64 62 61 57 57 55 56 56 56 57 61 63 58
104 96 96 90 86 81 78 73 71 78 79 75 72 66 67 65 59 56 61 63 56 62 72 58 53 58 59 56 56 57 61 60 56 52 49 47 49 51 52 54 56 60 59
110 108 98 101 92 84 80 80 71 67 77 78 81 74 67 66 64 58 58 58 60 56 60 76 66 55 51 53 54 54 56 57 52 48 47 47 45 45 49 52 50 53 55
120 110 131 128 112 115 102 98 96 82 74 83 86 80 72 71 66 62 51 51 50 52 49 56 71 71 58 52 49 52 54 53 52 48 45 43 41 41 45 48 40 42 50
152 133 157 130 132 137 134 115 102 109 101 93 116 113 108 95 71 72 59 46 55 49 47 46 47 44 72 70 49 51 52 49 47 47 44 41 37 38 41 41 39 44 48
146 137 171 154 157 156 160 133 125 123 91 112 312 255 160 145 119 79 75 59 44 50 43 41 50 46 35 48 57 50 45 43 42 40 42 40 37 35 39 39 41 41 46
154 159 179 175 172 190 170 166 174 184 185 119 339 316 308 29 77 128 86 73 55 37 34 30 38 42 42 45 53 55 39 30 34 36 37 34 34 34 37 44 45 45 50
153 160 174 197 176 168 186 184 194 206 209 200 136 319 335 3 301 159 138 89 60 37 27 26 25 40 39 44 58 46 31 25 30 33 29 26 24 28 32 36 41 44 48
152 155 184 188 185 176 196 176 191 231 209 224 231 228 311 299 286 295 312 11 70 48 29 19 20 32 33 34 43 50 33 27 26 27 23 19 17 17 17 20 26 31 35
162 168 190 199 201 199 206 195 191 209 232 224 243 239 251 258 275 277 283 302 348 39 54 36 10 26 24 28 51 50 37 32 25 22 18 14 9 6 5 8 14 23 26
178 180 184 212 221 222 226 214 206 222 223 222 235 248 249 258 263 267 274 286 295 301 107 147 57 28 31 24 64 54 60 38 24 16 10 9 8 5 4 5 6 13 14
191 194 193 204 221 237 231 223 231 226 237 230 234 239 243 249 249 249 258 273 277 253 194 144 144 73 31 360 43 284 86 63 22 11 9 7 7 7 9 10 3 1 2
204 203 199 210 212 234 242 225 234 228 235 238 243 243 242 240 240 249 239 245 265 270 270 144 178 203 236 267 48 255 358 83 40 10 9 8 2 360 4 6 360 1 357
215 214 211 209 203 212 230 235 241 248 239 229 250 252 246 239 233 235 238 241 255 269 269 261 235 209 226 242 230 264 323 128 130 10 358 359 357 356 353 355 357 356 353
212 218 230 226 217 214 223 225 245 243 244 235 229 236 236 243 232 227 229 231 239 252 253 261 247 221 218 238 225 235 229 219 149 115 329 346 345 339 342 340 348 349 348
218 222 228 237 232 227 225 227 236 242 246 251 252 246 242 234 240 237 229 228 230 240 245 255 246 234 238 243 238 238 236 235 237 126 194 321 332 324 317 324 332 334 340
223 222 224 234 239 239 233 232 238 245 248 254 257 257 254 243 240 233 231 233 230 232 237 241 247 236 236 234 232 234 229 231 240 180 194 230 288 316 302 304 327 326 330
226 232 234 233 239 245 242 239 245 249 252 254 252 257 262 259 253 247 237 235 231 229 228 232 234 224 219 225 230 227 226 216 233 237 246 242 228 231 243 247 270 347 353
234 237 243 242 246 253 268 272 260 263 265 260 254 251 253 270 297 282 267 247 235 237 229 229 231 229 214 208 227 236 237 236 241 260 256 243 237 240 224 223 229 275 324
240 237 241 252 258 260 334 293 281 269 271 269 263 256 239 224 234 244 269 271 259 246 241 236 237 234 229 223 223 236 231 234 235 221 260 260 256 260 259 253 115 195 266
239 243 244 251 260 273 301 264 262 270 268 271 268 261 253 249 239 234 220 222 236 255 254 256 250 246 243 231 226 230 233 244 255 220 252 256 248 262 259 204 126 209 249
251 246 248 253 260 264 270 264 257 255 263 263 263 261 254 251 243 252 241 229 226 219 226 237 251 254 249 242 240 245 247 239 246 218 227 256 249 258 268 250 151 222 248
271 259 247 250 257 263 268 272 272 260 258 261 262 261 261 258 241 255 249 241 234 222 190 237 322 334 357 305 252 230 220 220 235 217 220 255 261 260 260 252 192 188 216
276 270 263 258 261 270 273 257 269 265 263 263 265 261 249 268 254 226 243 240 241 239 211 193 198 195 209 198 214 228 230 234 241 232 201 236 251 253 245 231 241 218 218